Hourly Data Report for July 31, 2021

MIRAMICHI RCS
NEW BRUNSWICK
Current Station Operator: ECCC - MSC

47°00'34.000" N
65°27'54.000" W
33.00 m
8100989
71744
ACQ

Download Data

Hourly Data (July 2021)
Hourly Data Report for July 31, 2021
TIME
LST
Temp Definition
°C
Dew Point Definition
°C
Rel Hum Definition
%
Precip. Amount Definition
mm

Wind Dir Definition
10's deg

Wind Spd Definition
km/h
Visibility Definition
km
Stn Press Definition
kPa
Hmdx Definition


Wind Chill Definition


Weather Definition


00:00 14.7 13.8 94 0.0 25 12   99.60     LegendNANA
01:00 14.2 13.4 94 0.0 25 12   99.59     LegendNANA
02:00 13.8 12.5 92 0.0 26 13   99.59     LegendNANA
03:00 13.3 11.8 91 0.0 26 17   99.60     LegendNANA
04:00 12.5 11.0 90 0.0 25 14   99.61     LegendNANA
05:00 12.2 10.6 90 0.0 25 18   99.64     LegendNANA
06:00 12.2 10.9 92 0.0 24 17   99.64     LegendNANA
07:00 13.3 11.6 89 0.0 25 19   99.66     LegendNANA
08:00 14.8 12.6 87 0.0 25 18   99.67     LegendNANA
09:00 16.5 12.6 78 0.0 25 25   99.68     LegendNANA
10:00 17.8 13.1 74 0.0 25 21   99.75     LegendNANA
11:00 19.0 13.0 68 0.0 26 20   99.77     LegendNANA
12:00 19.2 12.0 63 0.0 26 28   99.80     LegendNANA
13:00 20.2 11.8 58 0.0 27 28   99.83     LegendNANA
14:00 21.2 11.7 54 0.0 27 28   99.86     LegendNANA
15:00 21.3 12.2 56 0.0 26 25   99.91     LegendNANA
16:00 21.6 10.6 50 0.0 28 24   99.98     LegendNANA
17:00 20.7 10.7 53 0.0 28 16   100.06     LegendNANA
18:00 21.0 11.2 53 0.0 27 15   100.13     LegendNANA
19:00 19.9 10.5 55 0.0 28 14   100.20     LegendNANA
20:00 16.9 11.5 70 0.0 24 6   100.25     LegendNANA
21:00 15.4 11.7 79 0.0 25 7   100.33     LegendNANA
22:00 15.1 11.6 80 0.0 25 10   100.36     LegendNANA
23:00 14.4 11.6 83 0.0 25 9   100.38     LegendNANA

Notes on Data Quality.

Legend

  • E = Estimated
  • M = Missing
  • NA = Not Available*
  • [empty] = Indicates an unobserved value
Date modified: